| time (UTC) | temp F | wind direction | speed MPH | gust MPH | rain 1hr in | rain 24hr in | rain mn in | humidity % | barometer mb |
| 20260904083028 | 46 | 29 | 0.0 | 0.0 | 0.00 | 0.00 | 0.00 | 62 | 1015.6 |
| 20260904081519 | 46 | 28 | 0.0 | 0.0 | 0.00 | 0.00 | 0.00 | 64 | 1015.7 |
| 20260904080020 | 47 | 79 | 0.0 | 0.0 | 0.00 | 0.00 | 0.00 | 62 | 1015.7 |
| 20260904074535 | 48 | 112 | 0.0 | 0.0 | 0.00 | 0.00 | 0.00 | 61 | 1015.7 |
| 20260904073022 | 48 | 112 | 0.0 | 0.0 | 0.00 | 0.00 | 0.00 | 62 | 1015.7 |
| 20260904071532 | 48 | 139 | 0.0 | 0.0 | 0.00 | 0.00 | 0.00 | 64 | 1015.8 |
| 20260904070027 | 48 | 75 | 0.0 | 2.0 | 0.00 | 0.00 | 0.00 | 59 | 1015.9 |
| 20260904064526 | 48 | 148 | 0.0 | 0.0 | 0.00 | 0.00 | 0.00 | 60 | 1015.9 |
| 20260904063037 | 50 | 148 | 0.0 | 0.0 | 0.00 | 0.00 | 0.00 | 52 | 1015.8 |
| 20260904061514 | 49 | 155 | 0.0 | 0.0 | 0.00 | 0.00 | 0.00 | 53 | 1015.9 |
| 20260904060018 | 50 | 155 | 0.0 | 0.0 | 0.00 | 0.00 | 0.00 | 51 | 1015.9 |
| 20260904054531 | 52 | 155 | 0.0 | 1.0 | 0.00 | 0.00 | 0.00 | 51 | 1015.9 |
| 20260904053032 | 52 | 59 | 0.0 | 0.0 | 0.00 | 0.00 | 0.00 | 47 | 1015.8 |
| 20260904051511 | 52 | 59 | 0.0 | 0.0 | 0.00 | 0.00 | 0.00 | 49 | 1016.0 |
| 20260904050021 | 53 | 50 | 0.0 | 3.0 | 0.00 | 0.00 | 0.00 | 46 | 1015.8 |
| 20260904044530 | 53 | 10 | 0.0 | 2.0 | 0.00 | 0.00 | 0.00 | 47 | 1015.9 |
| 20260904043027 | 54 | 76 | 0.0 | 1.0 | 0.00 | 0.00 | 0.00 | 45 | 1016.0 |
| 20260904041530 | 55 | 104 | 0.0 | 1.0 | 0.00 | 0.00 | 0.00 | 42 | 1016.0 |
| 20260904040012 | 56 | 48 | 0.0 | 0.0 | 0.00 | 0.00 | 0.00 | 41 | 1016.0 |
| 20260904034519 | 57 | 48 | 0.0 | 1.0 | 0.00 | 0.00 | 0.00 | 42 | 1016.1 |
| 20260904033025 | 59 | 30 | 1.0 | 3.0 | 0.00 | 0.00 | 0.00 | 36 | 1016.1 |
| 20260904031533 | 60 | 266 | 0.0 | 2.0 | 0.00 | 0.00 | 0.00 | 37 | 1016.0 |
| 20260904030031 | 64 | 105 | 1.0 | 3.0 | 0.00 | 0.00 | 0.00 | 27 | 1015.9 |
| 20260904024513 | 65 | 148 | 0.0 | 7.0 | 0.00 | 0.00 | 0.00 | 28 | 1015.9 |
| 20260904023020 | 65 | 41 | 3.0 | 5.0 | 0.00 | 0.00 | 0.00 | 29 | 1015.8 |
| 20260904021531 | 64 | 122 | 1.0 | 3.0 | 0.00 | 0.00 | 0.00 | 31 | 1015.9 |
| 20260904020031 | 66 | 113 | 0.0 | 1.0 | 0.00 | 0.00 | 0.00 | 31 | 1015.8 |
| 20260904014532 | 68 | 14 | 1.0 | 4.0 | 0.00 | 0.00 | 0.00 | 34 | 1015.9 |
| 20260904013017 | 71 | 109 | 0.0 | 2.0 | 0.00 | 0.00 | 0.00 | 25 | 1015.6 |
| 20260904011533 | 73 | 162 | 0.0 | 1.0 | 0.00 | 0.00 | 0.00 | 23 | 1015.6 |
| 20260904010040 | 71 | 281 | 0.0 | 3.0 | 0.00 | 0.00 | 0.00 | 25 | 1015.6 |
| 20260904004531 | 72 | 121 | 0.0 | 2.0 | 0.00 | 0.00 | 0.00 | 25 | 1015.6 |
| 20260904003033 | 72 | 190 | 0.0 | 3.0 | 0.00 | 0.00 | 0.00 | 25 | 1015.7 |
| 20260904001531 | 73 | 175 | 3.0 | 6.0 | 0.00 | 0.00 | 0.00 | 23 | 1015.6 |
| 20260904000032 | 73 | 142 | 2.0 | 8.0 | 0.00 | 0.00 | 0.00 | 23 | 1015.6 |
| 20260903234534 | 73 | 107 | 4.0 | 7.0 | 0.00 | 0.00 | 0.00 | 24 | 1015.7 |
| 20260903233033 | 73 | 141 | 3.0 | 9.0 | 0.00 | 0.00 | 0.00 | 24 | 1015.8 |
| 20260903231530 | 74 | 140 | 6.0 | 12.0 | 0.00 | 0.00 | 0.00 | 22 | 1015.9 |
| 20260903230025 | 74 | 170 | 4.0 | 8.0 | 0.00 | 0.00 | 0.00 | 23 | 1016.1 |
| 20260903224508 | 73 | 227 | 4.0 | 9.0 | 0.00 | 0.00 | 0.00 | 22 | 1016.3 |
| 20260903223014 | 71 | 221 | 4.0 | 7.0 | 0.00 | 0.00 | 0.00 | 25 | 1016.5 |
| 20260903221532 | 71 | 219 | 5.0 | 10.0 | 0.00 | 0.00 | 0.00 | 23 | 1016.7 |
| 20260903220040 | 72 | 137 | 5.0 | 13.0 | 0.00 | 0.00 | 0.00 | 24 | 1016.8 |
| 20260903214535 | 71 | 169 | 3.0 | 15.0 | 0.00 | 0.00 | 0.00 | 26 | 1016.9 |
| 20260903213012 | 72 | 165 | 3.0 | 10.0 | 0.00 | 0.00 | 0.00 | 25 | 1017.1 |
| 20260903211519 | 72 | 109 | 4.0 | 11.0 | 0.00 | 0.00 | 0.00 | 23 | 1017.1 |
| 20260903210031 | 71 | 151 | 4.0 | 9.0 | 0.00 | 0.00 | 0.00 | 26 | 1017.3 |
| 20260903204527 | 72 | 94 | 4.0 | 8.0 | 0.00 | 0.00 | 0.00 | 23 | 1017.4 |
| 20260903203028 | 71 | 92 | 8.0 | 16.0 | 0.00 | 0.00 | 0.00 | 25 | 1017.5 |
| 20260903201510 | 70 | 200 | 4.0 | 12.0 | 0.00 | 0.00 | 0.00 | 25 | 1017.7 |
| 20260903200018 | 71 | 117 | 6.0 | 12.0 | 0.00 | 0.00 | 0.00 | 25 | 1017.8 |
| 20260903194532 | 70 | 132 | 4.0 | 9.0 | 0.00 | 0.00 | 0.00 | 24 | 1017.9 |
| 20260903193023 | 70 | 217 | 6.0 | 12.0 | 0.00 | 0.00 | 0.00 | 22 | 1018.1 |
| 20260903191534 | 69 | 114 | 4.0 | 13.0 | 0.00 | 0.00 | 0.00 | 25 | 1018.3 |
| 20260903190008 | 69 | 160 | 4.0 | 12.0 | 0.00 | 0.00 | 0.00 | 25 | 1018.2 |
| 20260903184514 | 70 | 226 | 4.0 | 14.0 | 0.00 | 0.00 | 0.00 | 23 | 1018.1 |
| 20260903183028 | 70 | 155 | 5.0 | 14.0 | 0.00 | 0.00 | 0.00 | 24 | 1018.2 |
| 20260903181531 | 68 | 190 | 3.0 | 9.0 | 0.00 | 0.00 | 0.00 | 26 | 1018.3 |
| 20260903180029 | 65 | 184 | 1.0 | 8.0 | 0.00 | 0.00 | 0.00 | 29 | 1018.6 |
| 20260903174536 | 64 | 102 | 3.0 | 9.0 | 0.00 | 0.00 | 0.00 | 29 | 1018.7 |
| 20260903173025 | 64 | 152 | 7.0 | 10.0 | 0.00 | 0.00 | 0.00 | 28 | 1018.9 |
| 20260903171522 | 64 | 114 | 2.0 | 8.0 | 0.00 | 0.00 | 0.00 | 28 | 1019.1 |
| 20260903170040 | 64 | 141 | 2.0 | 10.0 | 0.00 | 0.00 | 0.00 | 31 | 1019.1 |
| 20260903164541 | 64 | 87 | 1.0 | 4.0 | 0.00 | 0.00 | 0.00 | 31 | 1019.1 |
| 20260903163013 | 63 | 214 | 2.0 | 4.0 | 0.00 | 0.00 | 0.00 | 34 | 1019.2 |
| 20260903161528 | 61 | 117 | 1.0 | 4.0 | 0.00 | 0.00 | 0.00 | 41 | 1019.2 |
| 20260903160030 | 59 | 233 | 1.0 | 3.0 | 0.00 | 0.00 | 0.00 | 47 | 1019.3 |
| 20260903154532 | 58 | 197 | 1.0 | 5.0 | 0.00 | 0.00 | 0.00 | 47 | 1019.4 |
| 20260903153041 | 57 | 179 | 2.0 | 6.0 | 0.00 | 0.00 | 0.00 | 47 | 1019.5 |
| 20260903151515 | 56 | 116 | 2.0 | 4.0 | 0.00 | 0.00 | 0.00 | 44 | 1019.3 |
| 20260903150028 | 53 | 155 | 3.0 | 6.0 | 0.00 | 0.00 | 0.00 | 44 | 1019.3 |
| 20260903144533 | 50 | 86 | 5.0 | 7.0 | 0.00 | 0.00 | 0.00 | 49 | 1019.4 |
| 20260903143033 | 49 | 91 | 3.0 | 5.0 | 0.00 | 0.00 | 0.00 | 52 | 1019.3 |
| 20260903141535 | 48 | 117 | 1.0 | 3.0 | 0.00 | 0.00 | 0.00 | 57 | 1019.4 |
| 20260903140015 | 49 | 150 | 2.0 | 3.0 | 0.00 | 0.00 | 0.00 | 54 | 1019.3 |
| 20260903134529 | 48 | 77 | 1.0 | 3.0 | 0.00 | 0.00 | 0.00 | 55 | 1019.0 |
| 20260903133029 | 47 | 84 | 0.0 | 2.0 | 0.00 | 0.00 | 0.00 | 60 | 1018.9 |
| 20260903131512 | 47 | 135 | 0.0 | 2.0 | 0.00 | 0.00 | 0.00 | 63 | 1018.7 |
| 20260903130012 | 48 | 69 | 0.0 | 2.0 | 0.00 | 0.00 | 0.00 | 59 | 1018.5 |
| 20260903124524 | 48 | 139 | 0.0 | 3.0 | 0.00 | 0.00 | 0.00 | 57 | 1018.4 |
| 20260903123030 | 47 | 157 | 0.0 | 0.0 | 0.00 | 0.00 | 0.00 | 63 | 1018.5 |
| 20260903121538 | 48 | 99 | 0.0 | 0.0 | 0.00 | 0.00 | 0.00 | 51 | 1018.4 |
| 20260903120024 | 49 | 136 | 0.0 | 0.0 | 0.00 | 0.00 | 0.00 | 52 | 1017.9 |
| 20260903114516 | 49 | 133 | 0.0 | 2.0 | 0.00 | 0.00 | 0.00 | 54 | 1017.9 |
| 20260903113025 | 48 | 145 | 0.0 | 2.0 | 0.00 | 0.00 | 0.00 | 60 | 1017.9 |
| 20260903111554 | 49 | 124 | 0.0 | 0.0 | 0.00 | 0.00 | 0.00 | 60 | 1017.9 |
| 20260903110030 | 49 | 186 | 0.0 | 0.0 | 0.00 | 0.00 | 0.00 | 55 | 1017.9 |
| 20260903104527 | 51 | 287 | 0.0 | 1.0 | 0.00 | 0.00 | 0.00 | 54 | 1017.8 |
| 20260903103028 | 53 | 30 | 2.0 | 7.0 | 0.00 | 0.00 | 0.00 | 42 | 1017.5 |
| 20260903101528 | 49 | 80 | 0.0 | 0.0 | 0.00 | 0.00 | 0.00 | 60 | 1017.6 |
| 20260903100033 | 50 | 96 | 0.0 | 0.0 | 0.00 | 0.00 | 0.00 | 55 | 1017.3 |
| 20260903094532 | 50 | 137 | 0.0 | 0.0 | 0.00 | 0.00 | 0.00 | 53 | 1017.3 |
| 20260903093034 | 52 | 205 | 0.0 | 1.0 | 0.00 | 0.00 | 0.00 | 56 | 1016.8 |
| 20260903091531 | 53 | 71 | 0.0 | 3.0 | 0.00 | 0.00 | 0.00 | 44 | 1016.9 |
| 20260903090034 | 51 | 146 | 0.0 | 1.0 | 0.00 | 0.00 | 0.00 | 58 | 1017.4 |
| 20260903084537 | 51 | 150 | 0.0 | 2.0 | 0.00 | 0.00 | 0.00 | 56 | 1017.4 |